Wind_Speed
3 3 5 5 4 4 3 5 3 5 2 2 3 8 7 2 2 2 5 14 21 27 26 23 20 18 17 15 13 13 13 13 12 10 9 8 8 9 9 9 10 11 11 12 12 12 13 13 14
1 4 4 2 4 3 4 5 3 3 3 6 8 5 4 3 2 6 13 15 24 28 26 24 22 20 18 16 14 12 11 12 13 11 8 7 9 8 8 9 8 10 10 10 11 13 12 13 15
3 3 3 4 3 4 4 3 3 5 6 4 4 4 5 5 3 16 7 23 26 27 27 24 22 21 19 17 15 14 12 11 10 10 10 8 9 8 7 8 9 9 10 10 11 12 12 13 15
4 5 4 3 4 6 5 4 2 5 4 4 4 5 3 5 12 12 22 27 24 27 27 24 21 20 19 17 16 14 13 11 10 10 10 8 9 8 8 8 9 10 8 9 9 11 12 12 14
3 3 3 0 4 5 6 6 6 2 1 3 3 4 2 2 9 22 29 29 26 28 27 25 22 20 18 16 16 14 14 13 11 10 11 9 8 9 9 9 9 9 7 7 8 10 11 11 12
4 3 3 2 4 6 8 4 2 1 1 5 4 4 4 9 23 30 28 29 25 27 27 24 22 21 20 16 15 13 13 14 11 10 10 11 8 7 9 9 10 9 7 6 6 7 9 9 10
4 3 3 4 4 5 5 0 3 3 6 3 3 5 2 2 21 27 28 26 27 26 27 26 24 21 20 17 15 13 12 11 11 11 9 11 10 8 8 9 10 9 8 5 5 5 8 8 9
4 3 2 4 2 3 6 3 3 3 3 6 5 5 4 6 20 20 23 29 28 28 27 27 25 23 21 17 15 13 11 10 10 10 11 10 9 10 9 9 10 10 9 7 4 5 6 6 9
4 3 2 4 4 7 7 7 7 4 2 3 5 6 6 22 19 20 21 21 23 26 29 26 25 24 22 18 17 14 12 11 10 11 11 10 10 10 10 10 10 10 10 9 6 4 4 5 8
4 3 8 5 1 3 4 2 6 7 8 3 2 2 13 25 20 15 17 19 23 26 26 24 23 23 21 19 18 15 15 13 12 12 12 11 10 10 10 10 10 10 10 9 8 5 4 5 9
5 5 5 5 5 4 5 5 3 3 7 5 2 4 2 9 16 16 18 27 30 28 25 24 22 22 21 20 18 17 16 15 14 12 12 11 11 11 10 11 11 9 9 10 10 7 5 7 8
3 8 7 6 7 4 5 4 5 5 10 8 5 4 5 7 8 14 18 26 29 30 29 28 25 23 22 20 21 19 18 17 16 15 14 15 14 12 16 15 12 11 10 11 11 9 7 8 4
4 5 7 9 9 6 5 6 6 10 10 8 10 8 10 11 10 19 28 31 34 35 34 32 28 26 25 23 20 19 17 17 15 14 14 15 15 10 9 11 11 10 10 11 11 10 8 7 6
4 4 7 7 8 5 6 7 5 15 5 9 8 12 10 10 13 19 20 24 26 33 36 33 31 30 28 24 19 17 14 15 15 14 14 13 13 12 10 11 11 11 10 10 9 8 10 7 4
4 6 8 8 5 5 2 5 10 18 4 9 11 15 11 11 18 20 29 30 32 33 36 35 32 31 28 22 19 18 17 15 15 15 14 12 11 11 11 11 13 12 11 9 10 10 8 8 6
6 1 3 6 3 7 9 7 15 10 5 10 11 9 9 10 13 28 33 31 26 33 35 39 35 34 29 25 20 19 18 18 19 17 17 13 12 12 12 13 13 12 11 10 11 12 10 9 13
2 5 5 7 4 3 3 5 10 5 6 9 10 9 8 9 10 23 29 35 27 29 38 40 38 36 31 27 23 22 22 20 19 15 17 17 18 15 15 15 15 14 12 10 10 11 13 14 16
6 4 4 4 6 8 7 9 8 10 6 11 10 9 9 9 12 20 22 31 32 30 37 42 41 37 33 31 27 26 24 20 17 17 18 16 16 18 16 13 16 15 12 10 9 10 14 16 18
4 4 9 8 8 7 7 9 10 10 10 10 10 11 10 11 13 20 20 19 24 27 36 39 36 39 36 34 32 28 24 19 16 15 15 15 14 15 15 14 14 14 11 10 10 13 16 15 18
8 9 11 8 8 5 12 19 8 7 9 15 16 12 11 10 10 12 23 18 20 32 39 39 40 44 41 40 36 30 25 19 17 15 14 13 11 12 15 14 12 13 10 10 11 11 14 11 17
11 7 10 12 5 3 5 15 9 6 7 9 12 11 10 14 14 12 9 15 18 30 35 41 44 47 44 41 33 20 22 16 16 16 15 13 12 14 14 14 14 13 11 10 10 13 17 12 15
10 10 12 6 4 9 5 10 8 10 12 9 12 10 9 9 7 8 8 8 21 30 35 44 42 44 43 39 35 30 29 15 17 19 16 13 13 15 14 15 13 11 11 11 11 13 15 17 17
8 6 6 3 4 4 4 2 2 5 17 17 12 5 2 4 4 5 5 8 17 27 31 33 38 41 40 37 33 27 24 21 18 16 15 14 14 14 15 13 14 11 12 13 13 13 15 15 17
6 3 2 1 1 7 7 6 16 3 4 10 6 2 3 3 3 4 6 12 13 17 23 32 37 35 33 30 25 23 22 20 18 18 16 12 12 14 17 15 15 16 15 15 13 12 12 16 16
9 6 4 3 2 9 6 6 14 11 11 12 18 8 4 4 4 4 4 7 16 22 21 29 35 30 28 26 22 18 16 16 17 18 17 15 15 15 16 12 13 15 14 11 10 13 15 15 19
3 2 1 5 4 5 5 6 5 2 10 17 18 17 10 11 3 6 6 7 12 20 28 27 28 27 24 21 18 15 15 14 16 19 19 17 16 15 14 11 10 12 10 11 10 11 14 13 14
4 3 2 4 8 3 5 6 4 14 19 21 20 19 16 10 7 7 6 10 15 19 21 30 27 22 20 20 19 17 17 17 18 17 15 12 9 10 9 10 12 10 11 8 7 10 12 13 14
4 4 2 2 4 6 6 5 1 12 14 14 18 19 18 17 11 6 5 7 15 20 24 24 24 23 21 18 18 17 16 16 17 16 14 11 10 9 9 10 12 11 9 9 8 9 10 13 13
4 3 2 1 3 4 4 2 5 9 12 14 14 15 15 16 15 9 3 6 10 17 20 23 22 22 19 15 15 15 16 19 18 15 12 10 10 9 9 7 9 11 11 11 11 12 13 15 14
5 4 4 1 5 3 3 3 5 8 7 11 16 15 15 13 14 12 5 8 10 9 14 18 19 17 18 18 17 19 19 18 16 14 11 9 7 6 8 11 11 11 11 12 12 12 14 17 17
Wind_Direction
294 290 324 38 47 59 278 274 270 320 34 335 330 90 125 95 149 199 146 170 167 166 168 167 159 155 153 149 149 146 140 140 141 135 131 129 124 122 116 119 118 111 94 90 85 82 84 80 69
323 14 58 80 83 34 280 270 314 269 299 126 101 120 61 77 95 109 142 170 166 166 168 167 160 157 156 155 151 152 151 149 146 143 136 133 132 133 132 132 125 118 104 93 89 85 83 84 69
48 24 80 96 126 184 216 238 273 312 326 3 96 48 129 140 129 158 181 168 167 167 167 167 166 162 160 159 159 155 152 150 145 144 145 140 145 147 140 139 137 127 112 102 93 90 94 88 79
18 21 34 76 250 261 238 260 267 320 337 348 129 69 42 237 166 184 167 164 163 169 170 167 168 167 165 161 160 162 165 161 156 154 150 150 151 141 145 143 150 133 120 109 99 103 101 90 86
56 58 59 356 251 265 253 238 254 239 251 298 339 151 31 326 174 162 162 166 162 169 173 171 171 172 171 168 165 161 161 161 159 157 158 154 161 160 151 151 150 141 133 113 106 109 114 103 90
35 89 75 230 252 277 297 244 267 262 236 306 69 94 198 168 154 161 170 172 170 169 175 178 179 177 178 177 171 166 164 162 163 163 162 161 162 162 164 160 154 155 143 120 113 123 118 115 103
112 84 209 228 253 295 282 328 109 272 315 316 100 132 284 180 167 168 174 177 177 173 172 179 183 184 185 185 182 174 170 171 167 169 171 170 170 171 175 164 161 163 160 143 127 112 119 119 123
106 96 278 264 246 265 314 349 165 214 251 303 141 177 194 207 169 168 172 180 181 179 179 182 186 185 183 187 193 187 177 174 181 175 171 177 177 176 181 173 169 170 170 167 145 111 116 130 138
114 81 239 258 339 307 333 359 325 288 87 309 338 160 223 163 162 146 150 165 175 182 184 185 187 189 191 193 194 196 195 187 189 187 180 187 179 180 185 179 176 176 175 178 172 159 116 145 144
107 143 219 215 201 273 284 302 313 346 333 324 28 12 151 163 173 172 150 160 168 182 186 189 191 190 193 199 198 203 207 205 200 199 194 193 192 189 191 183 184 185 185 182 189 182 151 159 145
187 203 217 263 243 274 272 289 218 338 294 252 178 206 228 175 184 184 167 173 180 185 186 190 188 189 194 201 204 205 209 213 213 205 203 194 200 194 196 192 185 188 198 193 196 192 172 156 136
210 236 233 256 279 296 261 252 270 185 242 258 199 282 280 242 208 188 177 172 182 186 194 190 188 188 194 197 204 206 210 213 215 213 203 199 206 219 217 204 196 196 206 208 205 201 188 184 219
236 254 258 264 270 245 269 252 253 254 255 256 271 203 226 228 216 205 196 190 180 185 194 193 192 196 195 200 212 214 218 217 213 207 208 213 201 203 192 185 192 194 205 214 213 204 204 217 260
249 265 261 268 266 256 251 271 151 264 255 264 275 273 217 215 218 216 211 211 202 195 195 196 195 197 193 196 208 216 218 210 209 210 208 207 208 207 191 183 185 190 195 208 212 201 210 223 239
308 323 314 274 271 264 146 295 243 258 191 268 277 270 251 217 223 219 219 215 219 216 208 198 196 198 193 201 193 200 203 205 203 200 194 195 191 194 179 172 184 186 191 204 209 209 209 215 201
348 335 307 304 309 266 144 251 260 260 231 254 282 286 271 247 221 232 228 223 214 212 200 200 195 192 195 189 192 194 208 212 210 209 197 191 183 180 170 182 186 191 201 205 206 202 196 179 163
326 248 244 308 219 261 178 290 279 288 211 254 264 272 275 276 274 250 241 238 223 207 204 193 191 190 189 189 189 184 176 177 177 177 189 197 201 192 190 192 191 194 202 204 205 206 207 177 154
229 239 237 244 296 326 287 270 285 293 273 262 268 270 256 253 252 258 254 247 235 205 204 192 192 186 186 189 182 172 172 177 180 182 185 188 185 192 195 194 193 197 206 195 202 204 179 175 158
236 277 274 274 271 276 258 262 265 278 304 282 272 266 254 258 258 256 257 254 238 211 192 186 182 185 181 179 173 176 181 188 193 195 193 196 198 201 204 209 202 199 213 202 186 172 169 159 153
253 261 270 275 249 268 292 280 262 244 249 254 271 262 252 249 257 254 254 248 230 202 194 183 183 187 182 182 184 183 183 186 196 197 199 206 216 218 207 206 210 201 205 178 187 195 169 165 159
248 238 258 264 272 261 282 288 296 267 254 265 258 258 258 260 254 247 241 238 219 189 185 182 184 185 182 187 182 171 175 180 189 202 215 219 221 223 213 207 218 205 207 201 196 215 200 167 186
259 225 243 262 287 275 150 293 276 276 292 288 279 282 282 256 240 231 238 224 205 195 189 185 182 181 185 187 185 181 177 168 197 205 210 211 212 219 210 215 202 214 209 215 211 216 216 201 186
245 236 236 253 243 300 160 187 294 14 297 290 286 303 339 313 302 279 206 213 206 182 183 175 173 179 185 186 188 183 179 185 188 189 194 207 216 213 203 209 203 206 217 219 220 217 214 215 211
309 321 313 350 139 273 192 176 284 223 286 310 349 263 194 253 12 34 54 110 130 157 163 158 164 172 171 172 175 174 169 171 175 184 182 181 186 198 201 199 208 206 212 218 227 230 223 216 228
29 62 331 285 250 246 193 185 251 351 15 343 322 277 284 350 70 71 91 110 121 126 138 145 154 149 154 156 160 166 172 178 185 188 183 175 175 177 184 192 206 217 214 222 231 225 220 222 223
330 260 151 259 231 276 312 233 246 22 9 15 6 355 354 342 25 79 51 77 102 120 132 137 142 142 144 148 147 155 168 170 170 173 177 174 174 178 185 205 209 202 210 208 221 224 221 223 215
345 36 193 240 270 247 237 267 187 19 21 11 0 0 349 341 359 6 54 79 96 105 116 132 136 133 136 137 141 145 152 157 159 164 166 169 174 181 186 196 198 199 200 216 213 208 204 206 212
98 273 3 248 253 239 259 224 239 15 7 358 358 352 350 351 358 351 33 73 107 118 128 129 132 132 131 132 134 140 148 151 151 156 157 160 163 175 183 192 201 194 194 199 198 200 207 208 213
338 324 312 313 268 242 275 250 84 26 358 350 340 335 341 349 345 322 338 100 124 135 132 134 134 139 138 143 149 143 142 145 149 147 155 153 154 160 173 190 201 203 205 207 208 213 218 216 219
249 5 35 282 295 275 281 260 104 36 18 350 334 331 327 344 345 313 248 154 130 136 147 145 143 151 145 148 154 145 143 141 142 143 161 178 186 191 196 206 210 207 211 210 212 218 227 224 219
Height
784 783 782 782 812 816 814 798 775 770 763 752 747 754 767 765 769 785 764 766 768 771 776 779 782 785 788 790 791 792 792 793 794 795 797 798 799 799 800 801 801 801 801 801 801 800 800 799 799
783 783 782 794 822 828 815 788 778 768 755 752 751 758 763 771 759 764 766 766 767 771 776 779 781 784 787 790 791 793 793 793 794 795 797 798 799 800 800 801 802 802 802 802 802 801 803 801 801
782 782 793 811 827 826 814 781 771 761 754 752 757 754 759 765 758 759 762 764 769 772 775 779 782 783 785 789 790 791 793 794 794 795 797 799 800 800 801 803 802 803 802 803 803 803 803 804 802
783 785 795 814 815 801 789 776 766 763 755 752 755 766 757 755 755 758 760 765 768 773 776 779 782 783 785 787 788 790 791 793 794 795 797 799 799 799 802 802 803 804 804 804 803 804 805 806 804
785 794 814 815 810 796 783 771 763 764 762 758 755 768 765 756 756 757 759 764 767 771 775 777 780 784 786 788 789 789 790 792 794 795 798 799 800 799 801 802 804 806 807 806 806 805 806 807 807
797 801 820 821 807 789 776 765 763 762 760 756 760 766 764 756 757 759 761 765 768 770 774 778 781 781 785 787 788 790 790 791 793 795 797 800 800 801 802 803 803 806 808 807 808 807 806 808 810
799 811 816 809 803 793 775 763 764 766 766 761 755 770 763 760 759 760 763 766 768 771 773 777 780 782 785 786 789 790 791 792 793 795 798 799 800 801 803 803 804 806 808 809 809 809 808 810 811
796 806 808 806 802 791 772 764 761 763 763 750 752 772 769 757 758 762 765 767 769 771 774 776 780 781 783 786 789 791 791 793 794 795 797 799 800 801 802 803 805 806 807 810 810 810 810 811 812
787 815 821 804 796 790 775 776 762 756 757 754 753 754 749 754 757 760 764 769 770 773 773 775 777 779 782 786 788 790 792 792 794 795 796 798 799 800 802 803 805 807 807 810 810 810 811 812 813
797 818 805 787 779 782 776 776 773 769 766 760 754 750 749 750 754 757 762 766 769 771 773 774 776 779 783 785 787 789 791 792 792 795 796 797 799 799 802 803 805 807 807 809 811 811 811 812 813
795 805 791 781 776 774 775 774 767 772 774 763 761 754 751 749 751 752 755 759 762 769 772 773 775 778 780 784 786 787 789 791 792 792 796 796 799 800 802 803 804 806 808 808 810 811 812 812 814
794 784 781 777 771 774 774 765 768 767 763 757 759 756 754 752 752 750 752 756 760 762 765 768 772 775 778 781 783 785 787 788 790 791 794 795 798 798 799 802 803 804 807 808 809 810 812 812 813
790 784 777 773 772 770 768 770 769 762 753 752 750 754 754 751 748 748 749 749 752 756 759 762 768 772 775 778 782 783 783 786 788 790 793 795 797 797 798 800 802 803 806 808 809 810 812 812 813
779 777 776 772 769 769 770 769 767 750 750 751 749 747 748 748 746 745 746 747 750 751 754 758 763 769 772 774 778 781 783 784 786 788 791 793 795 797 797 798 799 802 804 807 808 809 811 811 812
778 784 779 770 768 768 762 772 769 748 749 752 750 745 741 742 740 741 741 741 744 747 750 754 758 762 768 773 775 778 781 784 785 787 789 792 793 795 796 797 799 801 804 806 807 808 809 810 811
786 785 796 776 768 762 765 778 753 744 751 751 748 744 740 738 736 735 735 735 736 738 744 749 754 758 763 769 772 776 779 781 784 786 788 790 792 794 795 797 799 801 803 804 805 806 808 809 810
796 804 793 784 766 767 769 775 754 744 747 748 744 740 738 735 730 729 730 731 730 732 736 743 748 755 759 764 768 772 776 780 782 784 786 788 791 792 794 796 798 800 802 803 804 805 806 808 810
805 802 792 787 771 766 771 770 758 749 748 746 742 739 735 730 725 721 722 722 725 727 730 736 743 749 756 761 766 770 774 779 781 784 785 787 789 791 793 794 796 798 800 801 802 803 806 808 810
789 792 795 785 771 773 769 765 760 751 751 747 742 737 733 728 718 716 717 718 719 725 728 732 739 744 751 757 762 766 768 774 777 782 784 786 788 790 792 793 795 797 798 799 801 803 805 808 810
791 796 792 780 767 766 765 755 754 751 746 738 730 726 727 722 717 712 710 712 715 716 723 726 733 738 744 751 756 759 765 771 775 779 782 784 786 788 790 792 793 795 796 798 800 802 805 808 810
784 791 786 780 768 763 764 757 754 745 739 731 723 718 716 713 710 707 706 706 710 713 718 721 727 733 738 747 753 758 764 769 773 777 780 782 784 786 788 790 792 793 795 797 799 801 803 805 809
784 772 770 772 777 784 760 777 755 744 736 728 721 716 715 709 703 701 700 701 704 709 714 716 722 729 736 743 748 752 755 763 768 773 777 781 783 784 786 788 790 792 794 796 798 800 802 804 805
776 763 766 764 775 774 771 784 748 745 739 727 721 714 710 708 706 703 696 696 701 704 711 715 721 728 734 740 747 751 755 760 766 771 776 778 781 783 784 787 789 791 793 795 796 798 800 802 803
768 765 766 768 776 787 772 772 740 752 744 733 723 713 709 710 708 707 703 699 703 708 712 714 721 730 736 741 747 751 755 759 765 769 773 776 778 780 783 785 788 790 791 793 793 795 797 800 802
776 781 805 797 791 781 763 770 744 747 761 757 734 721 714 712 712 710 708 705 705 709 717 719 724 733 738 742 747 751 755 759 762 766 770 773 776 778 781 784 787 788 790 791 792 793 796 798 801
794 793 796 800 798 796 774 774 753 759 757 748 744 735 728 726 717 714 713 711 712 712 715 723 730 734 739 743 746 750 754 758 761 765 769 773 775 778 781 783 785 787 789 790 791 792 795 797 800
801 807 804 805 790 796 780 757 748 753 755 755 755 750 744 735 731 728 720 718 719 721 724 726 732 738 742 745 747 751 755 758 761 766 769 772 775 777 780 782 784 785 787 789 790 791 793 796 798
809 811 810 803 808 792 771 763 752 760 763 766 762 758 753 742 738 736 731 728 726 728 728 730 733 739 743 748 751 753 757 760 762 766 769 771 774 777 778 781 782 784 786 788 790 792 793 795 797
817 816 810 815 812 804 783 765 764 772 772 771 766 763 758 749 746 744 737 732 733 732 733 733 735 741 745 749 754 756 758 761 764 766 769 771 773 776 777 780 781 783 785 787 789 791 793 794 796
818 825 828 831 832 826 813 777 771 772 773 774 771 765 761 751 748 744 739 735 734 737 737 738 737 744 745 752 755 756 759 761 764 766 769 772 773 775 776 779 781 782 784 785 787 789 791 793 794